Regional Weather Roundup
Issued by NWS

Home | Current Version | Previous Version | Graphics & Text | Print | Product List | Glossary On
Versions: 1 2 3 4 5 6 7 8 9 10 11 12 13 14 15 16 17 18 19 20 21 22 23 24 25 26 27 28 29 30 31 32 33 34 35 36 37 38 39 40 41 42 43 44 45 46 47 48 49 50
000
ASUS43 KIND 212009
RWRIN

WEATHER ROUNDUP FOR INDIANA
NATIONAL WEATHER SERVICE INDIANAPOLIS IN
400 PM EDT SAT APR 21 2018

NOTE: "FAIR" INDICATES FEW OR NO CLOUDS BELOW 12,000 FEET WITH NO
SIGNIFICANT WEATHER AND/OR OBSTRUCTIONS TO VISIBILITY.

* - STATION DOES NOT REPORT WEATHER SUCH AS PRECIPITATION OR FOG.

+ - STATION NOT QUALITY CONTROLLED BY THE NATIONAL WEATHER SERVICE.
    USE DATA WITH CAUTION...ESPECIALLY DEWPOINT AND RELATIVE
    HUMIDITY OBSERVATIONS.

INZ001>003-010>013-019-020-212100-
NORTHWEST INDIANA

CITY           SKY/WX    TMP DP  RH WIND       PRES   REMARKS
GARY /AIRPORT/ CLOUDY    45  27  49 NE5       30.43S
KNOX *+        CLOUDY    54  27  35 CALM      30.41S
LA PORTE +     CLOUDY    54  28  36 SW3       30.41F
MICHIGAN CITY+ PTSUNNY   52  30  43 N6        30.42S
MONTICELLO +   CLOUDY    57  22  25 SE7       30.38S
RENSSELAER +   CLOUDY    55   5  13 CALM      30.39S
VALPARAISO     CLOUDY    56  29  35 CALM      30.41F

$$

LMZ046-743>745-212100-
SOUTHERN LAKE MICHIGAN

STATION/POSITION TIME  TEMP    WIND        PRES    WAVE
                       AIR SEA DIR/SP/G            HT
                 (UTC) (F)     (DEG/KT/KT) (MB)    (FT)
BURNS HARBOR     1940   42      70/  5/  6 1030.8R
MICHIGAN CITY    1940   42      30/  5/  6   N/A

$$

INZ004-005-014>016-021>024-212100-
NORTH CENTRAL INDIANA

CITY           SKY/WX    TMP DP  RH WIND       PRES   REMARKS
ELKHART        SUNNY     59  27  29 SW5       30.40F
GOSHEN         PTSUNNY   55  27  34 NW3       30.40F
LOGANSPORT +   CLOUDY    57  25  28 NE6       30.39F
PERU/GRISSOM   CLOUDY    59  27  29 E8        30.39S
ROCHESTER +    FAIR      55  23  28 CALM      30.40S
SOUTH BEND     FAIR      56  23  27 W5        30.42F
WARSAW +       FAIR      54  27  35 E5        30.40F

$$

INZ006>009-017-018-025>027-212100-
NORTHEAST INDIANA

CITY           SKY/WX    TMP DP  RH WIND       PRES   REMARKS
ANGOLA *+      FAIR      55  25  30 S6        30.39F
AUBURN +       FAIR      54  25  32 SE5       30.41F
FORT WAYNE     CLOUDY    54  25  32 E5        30.40F
HUNTINGTON +   PTSUNNY   54  20  26 E6        30.39F

$$

INZ028-029-035-036-043>045-051>053-212100-
WEST CENTRAL INDIANA

CITY           SKY/WX    TMP DP  RH WIND       PRES   REMARKS
CRAWFORDSVL +  FAIR      57  28  32 E8        30.35F
GREENCASTLE +  FAIR      57  28  33 E8        30.34F
LAFAYETTE      CLOUDY    59  29  31 E12       30.36F
TERRE HAUTE    FAIR      62  30  29 E10       30.31F

$$

INZ030>032-037>040-046>048-054>057-064-065-212100-
CENTRAL INDIANA

CITY           SKY/WX    TMP DP  RH WIND       PRES   REMARKS
ANDERSON       FAIR      59  21  23 E9        30.37F
COLUMBUS       PTSUNNY   61 N/A N/A NE9       30.34F
FISHERS *+     FAIR      59  30  33 NE3       30.36F
FRANKFORT +    PTSUNNY   62  26  25 E12       30.37F
GREENWOOD *+   FAIR      58  26  28 E6        30.35F
INDIANAPOLIS   PTSUNNY   59  22  24 E9        30.35F
-EAGLE CREEK   FAIR      60  24  25 E10       30.34F
KOKOMO +       CLOUDY    57  22  25 E13       30.38F
MARION +       CLOUDY    56  20  25 E3        30.39F
MT COMFORT *+  FAIR      59  30  33 E8        30.36F
SHELBYVILLE    FAIR      62  21  20 NE7       30.34F
ZIONSVILLE +   FAIR      57  26  30 NE7       30.36F

$$

INZ033-034-041-042-049-050-058-059-212100-
EAST CENTRAL INDIANA

CITY           SKY/WX    TMP DP  RH WIND       PRES   REMARKS
MUNCIE         PTSUNNY   60  20  21 E9        30.37F
RICHMOND +     FAIR      55  23  28 E10       30.36F

$$

INZ060-061-067>069-081>083-085>088-212100-
SOUTHWEST INDIANA

CITY           SKY/WX    TMP DP  RH WIND       PRES   REMARKS
EVANSVILLE     FAIR      69  32  25 E9        30.25F
HUNTINGBURG +  FAIR      69  30  23 SE6       30.26F
WASHINGTON +   FAIR      66  22  19 E10       30.28F

$$

INZ062-063-066-070>080-084-089>092-212100-
SOUTH CENTRAL AND SOUTHEAST INDIANA

CITY           SKY/WX    TMP DP  RH WIND       PRES   REMARKS
BATESVILLE +   SUNNY     57  23  26 MISG      30.34F
BEDFORD +      FAIR      66  21  18 E9        30.30F
BLOOMINGTON    FAIR      64  26  23 NE6       30.30F
FRENCH LICK *+ FAIR      66  14  13 E7        30.28F
MADISON *+     FAIR      64  19  17 E6        30.32F
NORTH VERNON + FAIR      61  28  29 N9        30.32F
SEYMOUR +      FAIR      66  32  28 E5        30.31F

$$




USA.gov is the U.S. government's official web portal to all federal, state and local government web resources and services.